Weather History for Prince Rupert, BC

Change the Weather History Date:

Tuesday, December 17, 2013

  Actual Average Record
Temperature  
Mean Temperature 41 °F -  
Max Temperature 50 °F 40 °F 50 °F (2004)
Min Temperature 32 °F 32 °F 17 °F (2008)
Degree Days  
Heating Degree Days 24    
Moisture  
Dew Point 36 °F    
Average Humidity 89    
Maximum Humidity 100    
Minimum Humidity 75    
Precipitation  
Precipitation 0.00 in - - ()
Sea Level Pressure  
Sea Level Pressure 29.88 in    
Wind  
Wind Speed 13 mph ()    
Max Wind Speed 25 mph    
Max Gust Speed 40 mph    
Visibility 7.4 miles    
Events Rain , Snow    
Averages and records for this station are not official NWS values.
T = Trace of Precipitation, MM = Missing Value Source: Averaged Metar Reports

Daily Weather History Graph

Daily Weather History Graph

Search for Another Location

Airport:

Trip Planner

Search our weather history database for the weather conditions in past years. The results will help you decide how hot, cold, wet, or windy it might be!

Date:

Astronomy

Dec. 17, 2013 Rise Set
Actual Time 8:58 AM PST 4:18 PM PST
Civil Twilight 8:13 AM PST 5:02 PM PST
Nautical Twilight 7:27 AM PST 5:48 PM PST
Astronomical Twilight 6:43 AM PST 6:32 PM PST
Moon 5:14 PM PST 8:49 AM PST
Length of Visible Light 8h 48m
Length of Day
7h 19m
Full, 100% of the Moon is Illuminated
Dec 17
Full
Dec 25
Last Quarter
Jan 1
New
Jan 7
First Quarter
Jan 15
Full

Hourly Weather History & Observations

Time (PST) Temp. Windchill Dew Point Humidity Pressure Visibility Wind Dir Wind Speed Gust Speed Precip Events Conditions
12:00 AM 50.0 °F - 46.4 °F 87% 29.44 in 9.0 mi South 16.1 mph 33.4 mph N/A Rain Light Rain
12:29 AM 50.0 °F - 46.4 °F 87% 29.45 in 5.0 mi South 16.1 mph 31.1 mph N/A Rain Light Rain
12:39 AM 48.2 °F - 46.4 °F 93% 29.46 in 3.0 mi South 15.0 mph 35.7 mph N/A Rain Light Rain
12:53 AM 48.2 °F - 46.4 °F 93% 29.47 in 3.0 mi South 17.3 mph 38.0 mph N/A Rain Light Rain
12:55 AM 48.2 °F - 46.4 °F 93% 29.47 in 3.0 mi South 18.4 mph 38.0 mph N/A Rain Light Rain
12:56 AM 48.2 °F - 46.4 °F 93% 29.47 in 3.0 mi South 15.0 mph 38.0 mph N/A Rain Light Rain
12:58 AM 48.2 °F - 46.4 °F 93% 29.47 in 3.0 mi South 16.1 mph 38.0 mph N/A Rain Light Rain
1:00 AM 48.2 °F - 46.4 °F 93% 29.48 in 3.0 mi SSW 12.7 mph 38.0 mph N/A Rain Light Rain
1:03 AM 48.2 °F - 46.4 °F 93% 29.49 in 3.0 mi SSW 24.2 mph 33.4 mph N/A Rain Light Rain
1:11 AM 50.0 °F - 46.4 °F 87% 29.49 in 6.0 mi SSW 19.6 mph 33.4 mph N/A Rain Light Rain
1:12 AM 50.0 °F - 46.4 °F 87% 29.49 in 7.0 mi SSW 20.7 mph 35.7 mph N/A Rain Light Rain
1:21 AM 48.2 °F - 46.4 °F 93% 29.51 in 5.0 mi SSW 15.0 mph 35.7 mph N/A Rain Light Rain
1:25 AM 48.2 °F - 46.4 °F 93% 29.52 in 2.5 mi SSW 19.6 mph 33.4 mph N/A Rain Light Rain
1:37 AM 46.4 °F 39.5 °F 42.8 °F 87% 29.54 in 3.0 mi WSW 17.3 mph 40.3 mph N/A Rain Light Rain
1:41 AM 44.6 °F 37.4 °F 42.8 °F 93% 29.55 in 6.0 mi WSW 16.1 mph 34.5 mph N/A Rain Light Rain
1:45 AM 44.6 °F 37.8 °F 42.8 °F 93% 29.57 in 8.0 mi WSW 15.0 mph 33.4 mph N/A   Overcast
2:00 AM 44.6 °F 37.4 °F 42.8 °F 93% 29.59 in 9.0 mi WSW 16.1 mph 28.8 mph N/A   Overcast
3:00 AM 42.8 °F 34.8 °F 39.2 °F 87% 29.67 in 9.0 mi WSW 17.3 mph 29.9 mph N/A   Overcast
4:00 AM 42.8 °F 33.5 °F 39.2 °F 87% 29.71 in 7.0 mi West 23.0 mph 33.4 mph N/A   Overcast
4:27 AM 42.8 °F 34.3 °F 39.2 °F 87% 29.74 in 9.0 mi West 19.6 mph 29.9 mph N/A   Overcast
4:36 AM 42.8 °F 35.8 °F 39.2 °F 87% 29.75 in 9.0 mi West 13.8 mph 31.1 mph N/A   Overcast
4:40 AM 42.8 °F 35.4 °F 37.4 °F 81% 29.75 in 9.0 mi WSW 15.0 mph 26.5 mph N/A   Overcast
4:41 AM 42.8 °F 34.8 °F 37.4 °F 81% 29.75 in 9.0 mi WSW 17.3 mph 26.5 mph N/A   Overcast
4:53 AM 42.8 °F 35.4 °F 39.2 °F 87% 29.75 in 9.0 mi West 15.0 mph 27.6 mph N/A Rain Light Rain
5:00 AM 42.8 °F 34.3 °F 37.4 °F 81% 29.76 in 9.0 mi WSW 19.6 mph 26.5 mph N/A Rain Light Rain
5:18 AM 42.8 °F 35.8 °F 37.4 °F 81% 29.78 in 9.0 mi WSW 13.8 mph 23.0 mph N/A   Overcast
5:21 AM 42.8 °F 37.5 °F 37.4 °F 81% 29.78 in 9.0 mi West 9.2 mph 23.0 mph N/A   Overcast
5:25 AM 42.8 °F 35.4 °F 37.4 °F 81% 29.78 in 9.0 mi West 15.0 mph 23.0 mph N/A   Overcast
5:28 AM 42.8 °F 37.5 °F 37.4 °F 81% 29.78 in 9.0 mi West 9.2 mph 23.0 mph N/A   Overcast
6:00 AM 42.8 °F 36.2 °F 37.4 °F 81% 29.79 in 9.0 mi West 12.7 mph 23.0 mph N/A   Overcast
6:09 AM 42.8 °F 36.2 °F 37.4 °F 81% 29.80 in 9.0 mi West 12.7 mph 20.7 mph N/A   Overcast
6:13 AM 42.8 °F 35.1 °F 37.4 °F 81% 29.80 in 9.0 mi WSW 16.1 mph 23.0 mph N/A   Overcast
6:15 AM 42.8 °F 34.8 °F 37.4 °F 81% 29.80 in 9.0 mi West 17.3 mph 24.2 mph N/A   Overcast
6:19 AM 42.8 °F 35.8 °F 37.4 °F 81% 29.80 in 9.0 mi WSW 13.8 mph 24.2 mph N/A   Overcast
6:20 AM 42.8 °F 35.8 °F 37.4 °F 81% 29.80 in 9.0 mi West 13.8 mph 24.2 mph N/A   Overcast
6:21 AM 42.8 °F 35.4 °F 37.4 °F 81% 29.80 in 9.0 mi WSW 15.0 mph 24.2 mph N/A   Overcast
6:22 AM 42.8 °F 35.8 °F 37.4 °F 81% 29.80 in 9.0 mi WSW 13.8 mph 24.2 mph N/A   Overcast
6:23 AM 42.8 °F 35.8 °F 37.4 °F 81% 29.80 in 9.0 mi WSW 13.8 mph 24.2 mph N/A   Overcast
6:27 AM 42.8 °F 35.1 °F 39.2 °F 87% 29.81 in 9.0 mi WSW 16.1 mph 23.0 mph N/A   Overcast
6:28 AM 42.8 °F 35.8 °F 39.2 °F 87% 29.81 in 9.0 mi West 13.8 mph 23.0 mph N/A   Overcast
6:29 AM 42.8 °F 35.8 °F 39.2 °F 87% 29.81 in 9.0 mi WSW 13.8 mph 23.0 mph N/A   Overcast
6:37 AM 42.8 °F 35.1 °F 39.2 °F 87% 29.81 in 8.0 mi WSW 16.1 mph 23.0 mph N/A Rain Light Rain
6:41 AM 41.0 °F 32.8 °F 39.2 °F 93% 29.81 in 5.0 mi West 16.1 mph 23.0 mph N/A Rain Light Rain
6:51 AM 41.0 °F 32.8 °F 37.4 °F 87% 29.81 in 5.0 mi West 16.1 mph 23.0 mph N/A Rain Light Rain
6:53 AM 41.0 °F 33.1 °F 37.4 °F 87% 29.82 in 7.0 mi West 15.0 mph 23.0 mph N/A Rain Light Rain
7:00 AM 41.0 °F 33.9 °F 39.2 °F 93% 29.82 in 9.0 mi WSW 12.7 mph 24.2 mph N/A Rain Light Rain
7:04 AM 41.0 °F 33.5 °F 39.2 °F 93% 29.82 in 9.0 mi WSW 13.8 mph 23.0 mph N/A Rain Light Rain
7:05 AM 41.0 °F 33.5 °F 39.2 °F 93% 29.82 in 9.0 mi WSW 13.8 mph 23.0 mph N/A   Overcast
7:12 AM 41.0 °F 32.8 °F 37.4 °F 87% 29.83 in 6.0 mi West 16.1 mph 28.8 mph N/A Rain Light Rain
7:13 AM 41.0 °F 33.9 °F 37.4 °F 87% 29.83 in 5.0 mi West 12.7 mph 28.8 mph N/A Rain Light Rain
7:15 AM 41.0 °F 33.5 °F 39.2 °F 93% 29.83 in 5.0 mi West 13.8 mph 28.8 mph N/A Rain Light Rain
7:16 AM 41.0 °F 34.3 °F 39.2 °F 93% 29.83 in 5.0 mi West 11.5 mph 28.8 mph N/A Rain Light Rain
7:20 AM 41.0 °F 33.1 °F 39.2 °F 93% 29.83 in 6.0 mi West 15.0 mph 23.0 mph N/A Rain Light Rain
7:30 AM 41.0 °F 33.1 °F 39.2 °F 93% 29.83 in 9.0 mi West 15.0 mph 21.9 mph N/A   Overcast
7:32 AM 41.0 °F 34.7 °F 39.2 °F 93% 29.83 in 9.0 mi SW 10.4 mph 20.7 mph N/A   Overcast
7:34 AM 41.0 °F 33.5 °F 39.2 °F 93% 29.83 in 9.0 mi WSW 13.8 mph 26.5 mph N/A Rain Light Rain
7:38 AM 41.0 °F 32.5 °F 39.2 °F 93% 29.83 in 4.0 mi WSW 17.3 mph 28.8 mph N/A Rain Light Rain
7:50 AM 39.2 °F 28.5 °F 37.4 °F 93% 29.84 in 6.0 mi WSW 24.2 mph 32.2 mph N/A Rain Light Rain
7:51 AM 39.2 °F 28.7 °F 35.6 °F 87% 29.84 in 6.0 mi WSW 23.0 mph 32.2 mph N/A Rain Light Rain
7:52 AM 39.2 °F 29.3 °F 37.4 °F 93% 29.84 in 5.0 mi WSW 20.7 mph 32.2 mph N/A Rain Light Rain
7:57 AM 39.2 °F 33.6 °F 37.4 °F 93% 29.85 in 6.0 mi West 8.1 mph 32.2 mph N/A Rain Light Rain
8:00 AM 39.2 °F 31.6 °F 37.4 °F 93% 29.85 in 7.0 mi West 12.7 mph 31.1 mph N/A Rain Light Rain
8:07 AM 41.0 °F 32.2 °F 37.4 °F 87% 29.85 in 9.0 mi West 18.4 mph 34.5 mph N/A   Overcast
8:09 AM 39.2 °F 30.5 °F 37.4 °F 93% 29.86 in 5.0 mi WSW 16.1 mph 34.5 mph N/A   Overcast
8:10 AM 39.2 °F 31.2 °F 37.4 °F 93% 29.86 in 4.0 mi WSW 13.8 mph 34.5 mph N/A Rain Light Rain
8:20 AM 39.2 °F 32.5 °F 37.4 °F 93% 29.86 in 6.0 mi West 10.4 mph 25.3 mph N/A Rain Light Rain
8:34 AM 39.2 °F 30.8 °F 37.4 °F 93% 29.87 in 9.0 mi WSW 15.0 mph 20.7 mph N/A   Overcast
8:35 AM 39.2 °F 31.6 °F 37.4 °F 93% 29.87 in 9.0 mi West 12.7 mph 20.7 mph N/A   Overcast
8:45 AM 39.2 °F 32.0 °F 37.4 °F 93% 29.87 in 9.0 mi West 11.5 mph 20.7 mph N/A Rain Light Rain
8:46 AM 39.2 °F 32.5 °F 37.4 °F 93% 29.87 in 9.0 mi West 10.4 mph 20.7 mph N/A Rain Light Rain
8:47 AM 39.2 °F 32.0 °F 37.4 °F 93% 29.87 in 9.0 mi West 11.5 mph 20.7 mph N/A Rain Light Rain
8:48 AM 39.2 °F 31.6 °F 37.4 °F 93% 29.87 in 9.0 mi West 12.7 mph 20.7 mph N/A Rain Light Rain
9:00 AM 39.2 °F 32.0 °F 37.4 °F 93% 29.88 in 9.0 mi West 11.5 mph 20.7 mph N/A Rain Light Rain
9:02 AM 39.2 °F 31.6 °F 37.4 °F 93% 29.88 in 9.0 mi West 12.7 mph 20.7 mph N/A   Overcast
9:03 AM 39.2 °F 30.8 °F 37.4 °F 93% 29.88 in 9.0 mi WSW 15.0 mph 20.7 mph N/A Rain Light Rain
9:14 AM 39.2 °F 31.6 °F 37.4 °F 93% 29.88 in 9.0 mi West 12.7 mph 20.7 mph N/A   Overcast
9:16 AM 39.2 °F 32.0 °F 37.4 °F 93% 29.88 in 9.0 mi WSW 11.5 mph 19.6 mph N/A Rain Light Rain
9:37 AM 39.2 °F 30.5 °F 35.6 °F 87% 29.90 in 7.0 mi WSW 16.1 mph 27.6 mph N/A Rain Light Rain
9:41 AM 39.2 °F 33.0 °F 35.6 °F 87% 29.90 in 5.0 mi West 9.2 mph 23.0 mph N/A Rain Light Rain
9:44 AM 39.2 °F 33.6 °F 35.6 °F 87% 29.90 in 6.0 mi SW 8.1 mph 23.0 mph N/A Rain Light Rain
10:00 AM 39.2 °F 32.0 °F 35.6 °F 87% 29.91 in 9.0 mi West 11.5 mph 20.7 mph N/A Rain Light Rain
10:09 AM 39.2 °F 31.6 °F 35.6 °F 87% 29.91 in 9.0 mi West 12.7 mph 21.9 mph N/A   Overcast
10:10 AM 39.2 °F 32.0 °F 35.6 °F 87% 29.91 in 9.0 mi West 11.5 mph 21.9 mph N/A   Overcast
10:28 AM 39.2 °F 29.6 °F 35.6 °F 87% 29.91 in 9.0 mi WSW 19.6 mph 29.9 mph N/A Rain Light Rain
10:38 AM 39.2 °F 29.6 °F 35.6 °F 87% 29.92 in 9.0 mi WSW 19.6 mph 34.5 mph N/A   Overcast
10:41 AM 39.2 °F 29.3 °F 33.8 °F 81% 29.92 in 9.0 mi WSW 20.7 mph 34.5 mph N/A Rain Light Rain
10:51 AM 39.2 °F 31.2 °F 33.8 °F 81% 29.93 in 9.0 mi West 13.8 mph 27.6 mph N/A   Overcast
10:56 AM 39.2 °F 28.3 °F 35.6 °F 87% 29.93 in 9.0 mi West 25.3 mph 31.1 mph N/A   Overcast
10:57 AM 39.2 °F 28.5 °F 35.6 °F 87% 29.93 in 9.0 mi West 24.2 mph 31.1 mph N/A Rain Light Rain
11:00 AM 39.2 °F 29.3 °F 35.6 °F 87% 29.93 in 9.0 mi West 20.7 mph 31.1 mph N/A Rain Light Rain
11:09 AM 37.4 °F 28.5 °F 35.6 °F 93% 29.94 in 7.0 mi West 15.0 mph 34.5 mph N/A Rain Light Rain
11:29 AM 37.4 °F 29.3 °F 35.6 °F 93% 29.94 in 7.0 mi West 12.7 mph 27.6 mph N/A Rain Light Rain
11:34 AM 37.4 °F 29.8 °F 35.6 °F 93% 29.95 in 9.0 mi West 11.5 mph 21.9 mph N/A Rain Light Rain
11:39 AM 37.4 °F 30.3 °F 33.8 °F 87% 29.95 in 9.0 mi West 10.4 mph 18.4 mph N/A Rain Light Rain
11:44 AM 37.4 °F 32.1 °F 35.6 °F 93% 29.95 in 9.0 mi West 6.9 mph 17.3 mph N/A   Overcast
12:00 PM 39.2 °F 30.8 °F 33.8 °F 81% 29.94 in 9.0 mi West 15.0 mph 23.0 mph N/A   Overcast
12:10 PM 39.2 °F 30.5 °F 35.6 °F 87% 29.94 in 9.0 mi WNW 16.1 mph 26.5 mph N/A Rain Light Rain
12:21 PM 37.4 °F 28.2 °F 33.8 °F 87% 29.95 in 9.0 mi WNW 16.1 mph 26.5 mph N/A Rain Light Rain
12:39 PM 37.4 °F 31.4 °F 35.6 °F 93% 29.95 in 9.0 mi West 8.1 mph 20.7 mph N/A Rain Light Rain
12:48 PM 37.4 °F 29.8 °F 33.8 °F 87% 29.95 in 9.0 mi West 11.5 mph 19.6 mph N/A   Overcast
1:00 PM 37.4 °F 29.3 °F 33.8 °F 87% 29.95 in 9.0 mi West 12.7 mph 20.7 mph N/A   Overcast
1:18 PM 37.4 °F 28.5 °F 33.8 °F 87% 29.96 in 9.0 mi West 15.0 mph 20.7 mph N/A Rain Light Rain
1:35 PM 39.2 °F 31.6 °F 33.8 °F 81% 29.95 in 9.0 mi West 12.7 mph 19.6 mph N/A   Overcast
2:00 PM 39.2 °F 31.6 °F 32.0 °F 75% 29.96 in 9.0 mi West 12.7 mph 24.2 mph N/A   Overcast
2:05 PM 39.2 °F 30.5 °F 33.8 °F 81% 29.96 in 9.0 mi West 16.1 mph 26.5 mph N/A Rain Light Rain
2:21 PM 37.4 °F 29.8 °F 32.0 °F 81% 29.96 in 9.0 mi West 11.5 mph 19.6 mph N/A   Overcast
3:00 PM 37.4 °F 30.3 °F 32.0 °F 81% 29.97 in 9.0 mi NW 10.4 mph 17.3 mph N/A   Overcast
3:08 PM 37.4 °F 30.8 °F 32.0 °F 81% 29.97 in 9.0 mi NW 9.2 mph 18.4 mph N/A   Overcast
3:13 PM 37.4 °F 29.8 °F 32.0 °F 81% 29.98 in 9.0 mi WNW 11.5 mph 18.4 mph N/A Rain Light Rain
3:15 PM 35.6 °F 27.1 °F 32.0 °F 87% 29.98 in 6.0 mi WNW 12.7 mph 20.7 mph N/A Rain Light Rain
3:16 PM 35.6 °F 27.5 °F 32.0 °F 87% 29.98 in 5.0 mi WNW 11.5 mph 20.7 mph N/A Rain Light Rain
3:20 PM 35.6 °F 31.7 °F 32.0 °F 87% 29.98 in 4.0 mi WNW 4.6 mph 20.7 mph N/A Rain Rain
3:22 PM 35.6 °F 30.7 °F 32.0 °F 87% 29.97 in 4.0 mi West 5.8 mph 20.7 mph N/A Rain Light Rain
3:23 PM 35.6 °F 31.7 °F 32.0 °F 87% 29.97 in 3.0 mi West 4.6 mph 20.7 mph N/A Rain , Snow Light Snow
3:29 PM 35.6 °F 29.9 °F 33.8 °F 93% 29.97 in 4.0 mi WSW 6.9 mph - N/A Snow Light Snow
3:30 PM 35.6 °F 29.2 °F 33.8 °F 93% 29.97 in 3.0 mi West 8.1 mph - N/A Snow Light Snow
3:36 PM 35.6 °F 28.0 °F 33.8 °F 93% 29.97 in 4.0 mi NW 10.4 mph - N/A   Overcast
3:38 PM 35.6 °F 26.6 °F 33.8 °F 93% 29.97 in 6.0 mi WNW 13.8 mph 24.2 mph N/A   Overcast
3:42 PM 37.4 °F 28.9 °F 33.8 °F 87% 29.97 in 9.0 mi WNW 13.8 mph 24.2 mph N/A   Overcast
3:43 PM 37.4 °F 29.3 °F 33.8 °F 87% 29.98 in 9.0 mi WNW 12.7 mph 24.2 mph N/A   Overcast
3:47 PM 35.6 °F 25.5 °F 32.0 °F 87% 29.98 in 9.0 mi West 17.3 mph 27.6 mph N/A   Overcast
3:50 PM 35.6 °F 26.2 °F 32.0 °F 87% 29.98 in 9.0 mi West 15.0 mph 27.6 mph N/A Rain Light Rain
3:58 PM 35.6 °F 27.1 °F 30.2 °F 81% 29.98 in 9.0 mi West 12.7 mph 25.3 mph N/A Rain Rain
4:00 PM 35.6 °F 27.1 °F 32.0 °F 87% 29.99 in 9.0 mi WSW 12.7 mph 25.3 mph N/A Rain Rain
4:04 PM 35.6 °F 26.6 °F 32.0 °F 87% 29.98 in 9.0 mi West 13.8 mph 24.2 mph N/A   Mostly Cloudy
4:06 PM 35.6 °F 26.6 °F 32.0 °F 87% 29.99 in 9.0 mi West 13.8 mph 24.2 mph N/A Rain Light Rain
4:07 PM 35.6 °F 27.1 °F 32.0 °F 87% 29.99 in 9.0 mi WSW 12.7 mph 24.2 mph N/A Rain Light Rain
4:24 PM 35.6 °F 28.0 °F 32.0 °F 87% 29.99 in 9.0 mi WSW 10.4 mph - N/A   Mostly Cloudy
5:00 PM 35.6 °F 26.2 °F 33.8 °F 93% 30.00 in 9.0 mi West 15.0 mph 32.2 mph N/A Rain Light Rain
5:02 PM 35.6 °F 27.5 °F 32.0 °F 87% 30.01 in 9.0 mi West 11.5 mph 32.2 mph N/A Rain Rain
5:04 PM 35.6 °F 29.9 °F 32.0 °F 87% 30.00 in 5.0 mi West 6.9 mph 32.2 mph N/A Rain Rain
5:05 PM 35.6 °F 32.8 °F 32.0 °F 87% 30.00 in 5.0 mi West 3.5 mph 32.2 mph N/A   Mostly Cloudy
5:11 PM 33.8 °F 30.8 °F 32.0 °F 93% 30.00 in 4.0 mi SSW 3.5 mph 17.3 mph N/A   Mostly Cloudy
5:14 PM 33.8 °F - 32.0 °F 93% 30.00 in 6.0 mi Variable 2.3 mph - N/A   Overcast
5:21 PM 33.8 °F - 32.0 °F 93% 30.00 in 9.0 mi Calm Calm - N/A   Mostly Cloudy
5:53 PM 32.0 °F 27.5 °F 32.0 °F 100% 30.00 in 9.0 mi East 4.6 mph - N/A Rain Light Rain
6:00 PM 32.0 °F - 32.0 °F 100% 30.00 in 9.0 mi Variable 2.3 mph - N/A Rain Light Rain
6:08 PM 32.0 °F 25.6 °F 32.0 °F 100% 30.00 in 9.0 mi NE 6.9 mph - N/A Rain Light Rain
6:11 PM 33.8 °F - 33.8 °F 100% 30.00 in 9.0 mi Variable 2.3 mph - N/A   Mostly Cloudy
6:25 PM 35.6 °F 27.5 °F 32.0 °F 87% 30.01 in 7.0 mi Variable 11.5 mph 17.3 mph N/A   Overcast
6:30 PM 35.6 °F 31.7 °F 32.0 °F 87% 30.01 in 7.0 mi West 4.6 mph 17.3 mph N/A   Overcast
6:31 PM 35.6 °F 29.9 °F 30.2 °F 81% 30.01 in 9.0 mi WNW 6.9 mph 17.3 mph N/A Rain Light Rain
6:37 PM 35.6 °F 30.7 °F 30.2 °F 81% 30.01 in 9.0 mi NW 5.8 mph - N/A Rain Light Rain
6:42 PM 35.6 °F 31.7 °F 30.2 °F 81% 30.01 in 9.0 mi North 4.6 mph - N/A   Mostly Cloudy
7:00 PM 33.8 °F 27.0 °F 32.0 °F 93% 30.01 in 9.0 mi NNE 8.1 mph - N/A   Mostly Cloudy
8:00 PM 33.8 °F 26.4 °F 32.0 °F 93% 30.03 in 9.0 mi East 9.2 mph - N/A   Overcast
8:30 PM 33.8 °F 27.7 °F 32.0 °F 93% 30.04 in 9.0 mi East 6.9 mph - N/A Rain Light Rain
8:37 PM 33.8 °F 27.7 °F 32.0 °F 93% 30.04 in 5.0 mi East 6.9 mph - N/A Rain Light Rain
8:38 PM 33.8 °F 27.7 °F 32.0 °F 93% 30.04 in 4.0 mi East 6.9 mph - N/A Rain , Snow Light Snow
8:42 PM 33.8 °F 29.6 °F 33.8 °F 100% 30.04 in 3.0 mi ENE 4.6 mph - N/A Rain , Snow Light Snow
8:43 PM 33.8 °F 28.6 °F 33.8 °F 100% 30.04 in 3.0 mi East 5.8 mph - N/A Rain , Snow Light Snow
8:44 PM 33.8 °F 27.7 °F 33.8 °F 100% 30.04 in 3.0 mi East 6.9 mph - N/A Snow Light Snow
8:46 PM 33.8 °F 28.6 °F 32.0 °F 93% 30.04 in 3.0 mi East 5.8 mph - N/A Snow Light Snow
8:49 PM 33.8 °F 27.0 °F 32.0 °F 93% 30.04 in 3.0 mi ENE 8.1 mph - N/A   Overcast
8:52 PM 33.8 °F 28.6 °F 32.0 °F 93% 30.04 in 4.0 mi ENE 5.8 mph - N/A   Overcast
8:53 PM 33.8 °F 28.6 °F 32.0 °F 93% 30.04 in 5.0 mi ENE 5.8 mph - N/A   Overcast
8:54 PM 33.8 °F 28.6 °F 32.0 °F 93% 30.04 in 7.0 mi East 5.8 mph - N/A Rain Light Rain
8:59 PM 33.8 °F 27.0 °F 32.0 °F 93% 30.04 in 9.0 mi East 8.1 mph - N/A Rain Light Rain
9:00 PM 33.8 °F 27.7 °F 32.0 °F 93% 30.04 in 9.0 mi East 6.9 mph - N/A Rain Light Rain
9:05 PM 33.8 °F 27.0 °F 32.0 °F 93% 30.04 in 9.0 mi East 8.1 mph - N/A   Mostly Cloudy
10:00 PM 32.0 °F 28.7 °F 32.0 °F 100% 30.06 in 9.0 mi NNE 3.5 mph - N/A   Partly Cloudy
11:00 PM 33.8 °F 29.6 °F 32.0 °F 93% 30.09 in 9.0 mi West 4.6 mph - N/A   Overcast
11:01 PM 33.8 °F 28.6 °F 32.0 °F 93% 30.09 in 9.0 mi West 5.8 mph - N/A Rain Light Rain
11:07 PM 35.6 °F 30.7 °F 30.2 °F 81% 30.09 in 5.0 mi West 5.8 mph - N/A Rain Light Rain
11:13 PM 35.6 °F 32.8 °F 30.2 °F 81% 30.09 in 5.0 mi WSW 3.5 mph - N/A   Mostly Cloudy
11:15 PM 35.6 °F 32.8 °F 30.2 °F 81% 30.09 in 7.0 mi West 3.5 mph - N/A   Mostly Cloudy
11:21 PM 35.6 °F - 30.2 °F 81% 30.09 in 9.0 mi Variable 2.3 mph - N/A   Scattered Clouds